QPF
0.00 0.00 0.00 0.00 0.00 0.00 0.00 0.00 0.01 0.02 0.03 0.02 0.01 0.04 0.05 0.01 0.00 0.00 0.00 0.00 0.00 0.00 0.01 0.01 0.03 0.03 0.03 0.03 0.04 0.04 0.05 0.07 0.08 0.08 0.09 0.10 0.10 0.09 0.11 0.12 0.12 0.13 0.15 0.16
0.00 0.00 0.00 0.00 0.00 0.00 0.00 0.00 0.00 0.04 0.08 0.05 0.01 0.02 0.04 0.03 0.01 0.01 0.00 0.00 0.00 0.01 0.01 0.01 0.03 0.03 0.03 0.03 0.03 0.05 0.06 0.08 0.10 0.09 0.09 0.11 0.10 0.10 0.10 0.10 0.11 0.13 0.14 0.14
0.00 0.00 0.00 0.00 0.00 0.00 0.00 0.00 0.01 0.02 0.04 0.05 0.02 0.04 0.03 0.01 0.01 0.01 0.00 0.01 0.01 0.01 0.02 0.02 0.03 0.04 0.05 0.03 0.03 0.04 0.06 0.08 0.07 0.07 0.09 0.11 0.09 0.08 0.09 0.10 0.10 0.10 0.11 0.12
0.00 0.00 0.00 0.01 0.00 0.00 0.00 0.00 0.01 0.02 0.01 0.02 0.02 0.02 0.01 0.01 0.01 0.01 0.01 0.01 0.01 0.01 0.02 0.02 0.03 0.03 0.04 0.04 0.04 0.05 0.06 0.05 0.05 0.06 0.07 0.08 0.08 0.07 0.07 0.07 0.07 0.08 0.09 0.09
0.00 0.01 0.01 0.02 0.01 0.01 0.02 0.03 0.01 0.00 0.00 0.00 0.01 0.01 0.02 0.01 0.01 0.02 0.02 0.01 0.01 0.02 0.03 0.03 0.03 0.04 0.05 0.06 0.06 0.05 0.05 0.06 0.06 0.06 0.07 0.06 0.05 0.04 0.05 0.07 0.08 0.08 0.08 0.07
0.00 0.01 0.03 0.04 0.02 0.01 0.02 0.03 0.01 0.01 0.01 0.00 0.01 0.03 0.04 0.02 0.01 0.01 0.04 0.03 0.03 0.03 0.03 0.03 0.04 0.04 0.05 0.06 0.07 0.07 0.05 0.05 0.07 0.06 0.05 0.05 0.06 0.07 0.07 0.07 0.05 0.05 0.05 0.05
0.00 0.00 0.02 0.03 0.03 0.02 0.02 0.04 0.01 0.01 0.01 0.01 0.01 0.03 0.04 0.03 0.01 0.01 0.02 0.02 0.02 0.02 0.03 0.04 0.04 0.04 0.04 0.05 0.06 0.06 0.06 0.05 0.05 0.05 0.04 0.04 0.06 0.07 0.06 0.05 0.04 0.03 0.04 0.04
0.00 0.01 0.02 0.01 0.02 0.04 0.05 0.01 0.00 0.01 0.02 0.02 0.02 0.02 0.05 0.03 0.01 0.01 0.01 0.02 0.01 0.02 0.03 0.05 0.05 0.05 0.06 0.05 0.05 0.06 0.06 0.05 0.04 0.03 0.02 0.03 0.05 0.07 0.06 0.05 0.05 0.05 0.05 0.05
0.02 0.03 0.03 0.01 0.01 0.02 0.02 0.02 0.01 0.02 0.03 0.05 0.08 0.05 0.04 0.02 0.02 0.01 0.01 0.02 0.02 0.03 0.03 0.04 0.05 0.05 0.04 0.05 0.05 0.04 0.03 0.03 0.02 0.02 0.02 0.03 0.03 0.05 0.05 0.05 0.04 0.04 0.04 0.05
0.03 0.02 0.01 0.00 0.01 0.01 0.01 0.02 0.03 0.04 0.04 0.05 0.07 0.05 0.05 0.03 0.03 0.02 0.02 0.02 0.02 0.03 0.03 0.04 0.05 0.04 0.04 0.04 0.03 0.03 0.03 0.03 0.04 0.04 0.03 0.02 0.02 0.03 0.03 0.04 0.04 0.05 0.05 0.07
0.05 0.03 0.02 0.02 0.01 0.01 0.01 0.01 0.02 0.06 0.05 0.02 0.03 0.03 0.03 0.02 0.02 0.02 0.02 0.03 0.03 0.04 0.03 0.03 0.03 0.03 0.03 0.03 0.04 0.04 0.04 0.04 0.04 0.05 0.05 0.04 0.04 0.05 0.05 0.05 0.05 0.06 0.08 0.08
0.08 0.05 0.03 0.05 0.05 0.05 0.02 0.01 0.01 0.05 0.05 0.02 0.02 0.02 0.03 0.02 0.02 0.02 0.02 0.03 0.04 0.04 0.03 0.02 0.02 0.02 0.03 0.03 0.04 0.04 0.05 0.05 0.05 0.06 0.07 0.07 0.06 0.06 0.07 0.07 0.07 0.07 0.06 0.05
0.08 0.05 0.05 0.05 0.05 0.05 0.04 0.03 0.02 0.01 0.01 0.01 0.02 0.02 0.03 0.04 0.03 0.03 0.03 0.03 0.03 0.03 0.03 0.03 0.03 0.03 0.04 0.05 0.05 0.05 0.06 0.06 0.07 0.07 0.07 0.06 0.06 0.05 0.05 0.06 0.06 0.06 0.06 0.06
0.10 0.06 0.06 0.07 0.08 0.06 0.04 0.04 0.03 0.01 0.01 0.01 0.02 0.01 0.02 0.04 0.04 0.04 0.04 0.03 0.04 0.05 0.05 0.05 0.05 0.06 0.05 0.05 0.05 0.05 0.05 0.06 0.06 0.05 0.05 0.04 0.04 0.03 0.03 0.03 0.03 0.04 0.06 0.06
0.05 0.05 0.05 0.05 0.05 0.05 0.04 0.05 0.04 0.02 0.01 0.01 0.01 0.01 0.01 0.02 0.03 0.03 0.04 0.04 0.05 0.07 0.07 0.06 0.05 0.05 0.05 0.04 0.04 0.04 0.03 0.03 0.03 0.03 0.03 0.03 0.03 0.04 0.04 0.04 0.04 0.05 0.05 0.05
0.04 0.06 0.05 0.04 0.05 0.05 0.04 0.04 0.02 0.01 0.01 0.02 0.01 0.01 0.01 0.02 0.03 0.04 0.04 0.04 0.05 0.06 0.06 0.06 0.05 0.05 0.04 0.03 0.03 0.04 0.04 0.04 0.02 0.02 0.02 0.02 0.03 0.04 0.04 0.05 0.05 0.05 0.04 0.04
0.06 0.11 0.09 0.05 0.05 0.04 0.03 0.03 0.03 0.02 0.02 0.02 0.02 0.02 0.02 0.02 0.02 0.03 0.03 0.03 0.04 0.05 0.05 0.04 0.04 0.05 0.05 0.04 0.04 0.04 0.04 0.03 0.02 0.02 0.02 0.02 0.02 0.03 0.04 0.04 0.04 0.04 0.04 0.03
0.08 0.09 0.07 0.04 0.03 0.03 0.02 0.02 0.02 0.03 0.03 0.04 0.05 0.04 0.04 0.03 0.04 0.04 0.04 0.04 0.04 0.05 0.04 0.03 0.03 0.04 0.04 0.04 0.03 0.03 0.02 0.02 0.01 0.01 0.02 0.02 0.02 0.03 0.03 0.03 0.03 0.03 0.03 0.03
0.06 0.06 0.05 0.03 0.02 0.02 0.02 0.02 0.03 0.04 0.03 0.04 0.06 0.06 0.06 0.05 0.06 0.06 0.05 0.04 0.04 0.05 0.05 0.04 0.04 0.03 0.03 0.04 0.04 0.03 0.02 0.02 0.01 0.01 0.01 0.01 0.01 0.01 0.01 0.02 0.01 0.01 0.01 0.01
0.06 0.04 0.02 0.02 0.02 0.03 0.03 0.03 0.03 0.04 0.04 0.04 0.05 0.06 0.07 0.08 0.08 0.07 0.06 0.05 0.06 0.05 0.05 0.05 0.05 0.04 0.03 0.03 0.04 0.03 0.03 0.02 0.02 0.01 0.01 0.00 0.00 0.00 0.00 0.00 0.00 0.00 0.00 0.00
0.07 0.05 0.04 0.04 0.03 0.04 0.04 0.03 0.03 0.03 0.03 0.04 0.04 0.05 0.07 0.06 0.06 0.05 0.05 0.05 0.05 0.04 0.04 0.04 0.03 0.03 0.02 0.02 0.02 0.02 0.02 0.02 0.02 0.02 0.02 0.01 0.00 0.00 0.00 0.00 0.01 0.01 0.00 0.00
0.06 0.05 0.04 0.04 0.04 0.04 0.03 0.03 0.03 0.03 0.03 0.03 0.03 0.03 0.04 0.05 0.05 0.04 0.04 0.03 0.02 0.01 0.01 0.01 0.01 0.01 0.01 0.01 0.00 0.00 0.01 0.01 0.01 0.01 0.01 0.01 0.01 0.00 0.00 0.00 0.01 0.00 0.00 0.00
0.06 0.05 0.06 0.06 0.04 0.04 0.03 0.03 0.03 0.03 0.02 0.02 0.02 0.02 0.02 0.03 0.03 0.03 0.03 0.02 0.01 0.01 0.01 0.00 0.00 0.00 0.00 0.00 0.00 0.00 0.00 0.00 0.00 0.00 0.00 0.00 0.00 0.01 0.01 0.01 0.00 0.00 0.00 0.00
0.08 0.08 0.08 0.07 0.06 0.06 0.06 0.05 0.04 0.04 0.03 0.02 0.02 0.02 0.02 0.02 0.02 0.02 0.02 0.01 0.01 0.01 0.00 0.00 0.00 0.00 0.00 0.00 0.00 0.00 0.00 0.00 0.00 0.00 0.00 0.00 0.01 0.01 0.01 0.00 0.00 0.00 0.00 0.00
0.10 0.09 0.07 0.06 0.05 0.06 0.07 0.06 0.04 0.05 0.04 0.03 0.02 0.01 0.01 0.01 0.02 0.02 0.01 0.00 0.00 0.00 0.00 0.00 0.00 0.00 0.00 0.00 0.00 0.00 0.00 0.00 0.00 0.00 0.00 0.00 0.00 0.00 0.00 0.00 0.00 0.00 0.00 0.00
0.08 0.08 0.07 0.05 0.04 0.05 0.05 0.05 0.03 0.04 0.04 0.03 0.02 0.01 0.01 0.01 0.01 0.01 0.01 0.00 0.00 0.00 0.00 0.00 0.00 0.00 0.00 0.00 0.00 0.00 0.00 0.00 0.00 0.00 0.00 0.00 0.00 0.00 0.00 0.00 0.00 0.00 0.00 0.00
0.07 0.06 0.06 0.06 0.05 0.05 0.04 0.03 0.02 0.02 0.02 0.02 0.02 0.01 0.01 0.00 0.00 0.01 0.01 0.00 0.00 0.00 0.00 0.00 0.00 0.00 0.00 0.00 0.00 0.00 0.00 0.00 0.00 0.00 0.00 0.00 0.01 0.01 0.00 0.00 0.00 0.00 0.00 0.00
MSLP
1003.80 1004.07 1004.33 1004.57 1004.80 1005.00 1005.18 1005.32 1005.40 1005.42 1005.37 1005.28 1005.15 1005.02 1004.92 1004.87 1004.89 1005.01 1005.22 1005.51 1005.88 1006.31 1006.75 1007.19 1007.61 1007.97 1008.27 1008.50 1008.65 1008.73 1008.76 1008.75 1008.74 1008.73 1008.76 1008.84 1008.98 1009.18 1009.45 1009.77 1010.13 1010.54 1010.98 1011.46
1003.86 1004.05 1004.18 1004.28 1004.36 1004.43 1004.52 1004.62 1004.73 1004.85 1004.95 1005.04 1005.11 1005.15 1005.19 1005.23 1005.28 1005.38 1005.52 1005.74 1006.02 1006.36 1006.75 1007.17 1007.60 1008.00 1008.36 1008.66 1008.87 1009.02 1009.10 1009.13 1009.14 1009.15 1009.19 1009.28 1009.42 1009.61 1009.86 1010.16 1010.50 1010.86 1011.27 1011.71
1003.88 1003.96 1003.97 1003.94 1003.89 1003.87 1003.90 1003.99 1004.15 1004.36 1004.60 1004.86 1005.10 1005.30 1005.45 1005.57 1005.65 1005.73 1005.82 1005.96 1006.16 1006.44 1006.78 1007.18 1007.62 1008.06 1008.48 1008.84 1009.14 1009.36 1009.52 1009.61 1009.68 1009.74 1009.82 1009.94 1010.10 1010.31 1010.56 1010.84 1011.15 1011.48 1011.84 1012.24
1003.82 1003.76 1003.64 1003.48 1003.34 1003.24 1003.24 1003.34 1003.56 1003.87 1004.25 1004.66 1005.05 1005.39 1005.66 1005.85 1005.98 1006.06 1006.12 1006.21 1006.35 1006.57 1006.88 1007.26 1007.70 1008.17 1008.63 1009.06 1009.43 1009.73 1009.97 1010.15 1010.29 1010.43 1010.57 1010.75 1010.95 1011.19 1011.46 1011.74 1012.04 1012.35 1012.69 1013.06
1003.70 1003.47 1003.19 1002.91 1002.67 1002.52 1002.50 1002.64 1002.92 1003.33 1003.84 1004.39 1004.93 1005.41 1005.80 1006.08 1006.26 1006.37 1006.44 1006.50 1006.62 1006.80 1007.07 1007.44 1007.87 1008.35 1008.84 1009.31 1009.74 1010.11 1010.42 1010.68 1010.91 1011.12 1011.35 1011.59 1011.87 1012.16 1012.47 1012.79 1013.11 1013.42 1013.75 1014.11
1003.57 1003.14 1002.69 1002.27 1001.95 1001.75 1001.73 1001.90 1002.25 1002.77 1003.40 1004.08 1004.76 1005.37 1005.88 1006.27 1006.53 1006.69 1006.79 1006.87 1006.97 1007.14 1007.40 1007.74 1008.15 1008.63 1009.12 1009.61 1010.07 1010.49 1010.86 1011.19 1011.49 1011.79 1012.10 1012.43 1012.78 1013.15 1013.53 1013.90 1014.27 1014.63 1014.99 1015.36
1003.52 1002.87 1002.25 1001.70 1001.28 1001.05 1001.02 1001.23 1001.65 1002.25 1002.99 1003.79 1004.59 1005.33 1005.96 1006.45 1006.81 1007.04 1007.20 1007.31 1007.44 1007.61 1007.85 1008.17 1008.56 1009.01 1009.50 1009.99 1010.46 1010.90 1011.31 1011.69 1012.06 1012.43 1012.82 1013.23 1013.67 1014.12 1014.58 1015.04 1015.48 1015.90 1016.32 1016.74
1003.63 1002.78 1001.99 1001.33 1000.83 1000.56 1000.53 1000.76 1001.23 1001.90 1002.71 1003.61 1004.50 1005.34 1006.07 1006.67 1007.12 1007.44 1007.67 1007.84 1007.99 1008.18 1008.42 1008.73 1009.10 1009.52 1009.98 1010.45 1010.92 1011.37 1011.80 1012.22 1012.65 1013.08 1013.54 1014.02 1014.54 1015.07 1015.62 1016.16 1016.69 1017.20 1017.69 1018.17
1003.93 1002.93 1002.03 1001.28 1000.73 1000.43 1000.40 1000.64 1001.12 1001.82 1002.68 1003.61 1004.57 1005.47 1006.27 1006.94 1007.47 1007.88 1008.18 1008.41 1008.61 1008.83 1009.08 1009.39 1009.74 1010.15 1010.59 1011.04 1011.50 1011.95 1012.40 1012.85 1013.31 1013.78 1014.29 1014.84 1015.42 1016.02 1016.64 1017.26 1017.87 1018.46 1019.03 1019.57
1004.40 1003.34 1002.39 1001.61 1001.04 1000.73 1000.69 1000.92 1001.40 1002.08 1002.92 1003.85 1004.81 1005.72 1006.55 1007.27 1007.86 1008.32 1008.69 1008.99 1009.25 1009.52 1009.80 1010.12 1010.49 1010.89 1011.32 1011.77 1012.23 1012.69 1013.15 1013.61 1014.09 1014.60 1015.14 1015.71 1016.33 1016.98 1017.64 1018.32 1018.99 1019.64 1020.26 1020.86
1004.97 1003.94 1003.02 1002.27 1001.73 1001.43 1001.39 1001.59 1002.03 1002.66 1003.43 1004.30 1005.20 1006.08 1006.89 1007.61 1008.23 1008.75 1009.18 1009.54 1009.88 1010.20 1010.54 1010.90 1011.29 1011.72 1012.17 1012.63 1013.10 1013.57 1014.04 1014.52 1015.02 1015.53 1016.08 1016.66 1017.28 1017.94 1018.61 1019.31 1020.00 1020.68 1021.33 1021.94
1005.48 1004.59 1003.79 1003.15 1002.68 1002.42 1002.37 1002.54 1002.91 1003.44 1004.11 1004.87 1005.67 1006.47 1007.23 1007.93 1008.56 1009.11 1009.60 1010.04 1010.45 1010.85 1011.26 1011.69 1012.14 1012.61 1013.09 1013.59 1014.08 1014.57 1015.06 1015.55 1016.05 1016.56 1017.09 1017.65 1018.24 1018.87 1019.52 1020.19 1020.86 1021.52 1022.16 1022.76
1005.81 1005.14 1004.54 1004.04 1003.68 1003.48 1003.45 1003.57 1003.86 1004.28 1004.82 1005.45 1006.12 1006.82 1007.51 1008.18 1008.81 1009.39 1009.94 1010.46 1010.96 1011.46 1011.95 1012.46 1012.98 1013.51 1014.04 1014.57 1015.10 1015.61 1016.12 1016.61 1017.09 1017.58 1018.08 1018.60 1019.14 1019.71 1020.30 1020.92 1021.53 1022.15 1022.74 1023.29
1005.89 1005.48 1005.11 1004.80 1004.57 1004.45 1004.43 1004.52 1004.73 1005.04 1005.45 1005.94 1006.50 1007.10 1007.72 1008.36 1009.00 1009.63 1010.24 1010.85 1011.44 1012.03 1012.62 1013.20 1013.79 1014.37 1014.95 1015.51 1016.06 1016.58 1017.08 1017.57 1018.03 1018.49 1018.95 1019.41 1019.89 1020.39 1020.91 1021.44 1021.99 1022.53 1023.05 1023.54
1005.73 1005.58 1005.44 1005.33 1005.24 1005.20 1005.20 1005.27 1005.41 1005.63 1005.93 1006.31 1006.77 1007.30 1007.89 1008.52 1009.18 1009.86 1010.55 1011.23 1011.92 1012.59 1013.25 1013.90 1014.53 1015.14 1015.73 1016.30 1016.85 1017.36 1017.85 1018.31 1018.75 1019.17 1019.58 1019.99 1020.41 1020.84 1021.29 1021.74 1022.21 1022.68 1023.13 1023.54
1005.42 1005.51 1005.58 1005.64 1005.68 1005.71 1005.75 1005.80 1005.90 1006.06 1006.29 1006.60 1007.01 1007.51 1008.08 1008.73 1009.43 1010.17 1010.92 1011.68 1012.43 1013.16 1013.86 1014.53 1015.17 1015.77 1016.34 1016.88 1017.39 1017.87 1018.32 1018.74 1019.14 1019.53 1019.90 1020.27 1020.64 1021.02 1021.41 1021.81 1022.22 1022.62 1023.01 1023.37
1005.14 1005.41 1005.64 1005.83 1005.97 1006.07 1006.14 1006.21 1006.29 1006.43 1006.63 1006.92 1007.32 1007.82 1008.41 1009.09 1009.84 1010.63 1011.44 1012.24 1013.02 1013.76 1014.45 1015.09 1015.68 1016.23 1016.73 1017.20 1017.63 1018.05 1018.44 1018.82 1019.18 1019.54 1019.89 1020.23 1020.59 1020.94 1021.30 1021.67 1022.04 1022.40 1022.75 1023.08
1005.09 1005.47 1005.80 1006.08 1006.29 1006.44 1006.54 1006.63 1006.72 1006.86 1007.08 1007.38 1007.80 1008.33 1008.96 1009.68 1010.47 1011.29 1012.11 1012.92 1013.68 1014.38 1015.01 1015.57 1016.06 1016.50 1016.90 1017.25 1017.59 1017.92 1018.25 1018.57 1018.90 1019.24 1019.58 1019.93 1020.29 1020.65 1021.01 1021.38 1021.74 1022.09 1022.43 1022.74
1005.43 1005.86 1006.24 1006.55 1006.79 1006.97 1007.10 1007.22 1007.34 1007.51 1007.76 1008.10 1008.56 1009.12 1009.79 1010.53 1011.32 1012.14 1012.94 1013.69 1014.38 1014.99 1015.50 1015.94 1016.30 1016.60 1016.86 1017.09 1017.32 1017.56 1017.81 1018.09 1018.40 1018.73 1019.08 1019.45 1019.83 1020.22 1020.61 1021.00 1021.38 1021.74 1022.08 1022.39
1006.23 1006.65 1007.02 1007.34 1007.59 1007.77 1007.93 1008.06 1008.22 1008.43 1008.72 1009.10 1009.58 1010.17 1010.84 1011.58 1012.34 1013.10 1013.83 1014.49 1015.06 1015.53 1015.91 1016.19 1016.40 1016.55 1016.67 1016.79 1016.91 1017.07 1017.27 1017.52 1017.81 1018.15 1018.53 1018.93 1019.35 1019.77 1020.20 1020.61 1021.02 1021.39 1021.75 1022.07
1007.43 1007.81 1008.14 1008.43 1008.66 1008.84 1009.00 1009.16 1009.34 1009.58 1009.90 1010.30 1010.79 1011.37 1012.02 1012.70 1013.39 1014.06 1014.67 1015.20 1015.63 1015.96 1016.18 1016.32 1016.39 1016.41 1016.42 1016.44 1016.50 1016.60 1016.77 1017.00 1017.29 1017.65 1018.05 1018.48 1018.93 1019.39 1019.84 1020.28 1020.70 1021.09 1021.45 1021.79
1008.88 1009.19 1009.47 1009.71 1009.90 1010.07 1010.22 1010.39 1010.59 1010.84 1011.16 1011.56 1012.03 1012.57 1013.15 1013.75 1014.33 1014.87 1015.35 1015.74 1016.02 1016.21 1016.30 1016.32 1016.29 1016.23 1016.17 1016.14 1016.16 1016.25 1016.41 1016.65 1016.95 1017.32 1017.74 1018.19 1018.66 1019.13 1019.59 1020.03 1020.45 1020.84 1021.20 1021.53
1010.35 1010.60 1010.81 1010.99 1011.15 1011.28 1011.43 1011.59 1011.78 1012.03 1012.34 1012.70 1013.13 1013.59 1014.08 1014.57 1015.02 1015.43 1015.77 1016.03 1016.19 1016.27 1016.28 1016.23 1016.15 1016.06 1015.99 1015.96 1016.00 1016.10 1016.28 1016.53 1016.85 1017.22 1017.64 1018.09 1018.55 1019.01 1019.45 1019.87 1020.27 1020.64 1020.98 1021.30
1011.64 1011.81 1011.96 1012.09 1012.20 1012.31 1012.43 1012.57 1012.75 1012.98 1013.26 1013.57 1013.93 1014.31 1014.70 1015.07 1015.40 1015.69 1015.91 1016.06 1016.15 1016.17 1016.14 1016.08 1016.01 1015.95 1015.93 1015.95 1016.03 1016.17 1016.38 1016.65 1016.98 1017.35 1017.75 1018.17 1018.59 1019.00 1019.40 1019.78 1020.14 1020.48 1020.80 1021.10
1012.59 1012.70 1012.78 1012.85 1012.92 1013.00 1013.10 1013.22 1013.39 1013.59 1013.83 1014.10 1014.39 1014.69 1014.98 1015.25 1015.49 1015.68 1015.82 1015.91 1015.96 1015.98 1015.97 1015.95 1015.94 1015.96 1016.01 1016.10 1016.25 1016.45 1016.69 1016.98 1017.30 1017.64 1018.00 1018.36 1018.72 1019.07 1019.41 1019.74 1020.05 1020.35 1020.64 1020.92
1013.14 1013.18 1013.21 1013.24 1013.27 1013.32 1013.40 1013.52 1013.67 1013.85 1014.06 1014.29 1014.53 1014.77 1014.99 1015.19 1015.37 1015.51 1015.61 1015.69 1015.75 1015.80 1015.85 1015.91 1015.99 1016.10 1016.25 1016.43 1016.64 1016.88 1017.14 1017.43 1017.72 1018.01 1018.31 1018.60 1018.88 1019.16 1019.44 1019.71 1019.97 1020.24 1020.51 1020.79
1013.33 1013.32 1013.31 1013.30 1013.31 1013.35 1013.42 1013.53 1013.68 1013.86 1014.06 1014.28 1014.49 1014.70 1014.90 1015.07 1015.21 1015.34 1015.45 1015.55 1015.65 1015.76 1015.88 1016.03 1016.20 1016.40 1016.63 1016.87 1017.13 1017.39 1017.66 1017.91 1018.16 1018.39 1018.61 1018.82 1019.03 1019.23 1019.44 1019.67 1019.90 1020.15 1020.42 1020.70
Thickness
5790 5802 5806 5804 5805 5809 5803 5801 5791 5790 5789 5797 5801 5801 5800 5803 5803 5801 5797 5794 5790 5786 5782 5779 5775 5772 5770 5767 5764 5761 5757 5752 5749 5746 5744 5741 5738 5736 5734 5732 5730 5728 5726 5724
5778 5794 5800 5798 5805 5808 5807 5805 5800 5794 5784 5799 5800 5800 5796 5796 5795 5792 5792 5790 5787 5784 5779 5775 5772 5769 5766 5763 5760 5757 5753 5748 5745 5742 5738 5735 5732 5730 5727 5724 5722 5720 5717 5715
5761 5781 5784 5776 5798 5804 5806 5810 5804 5789 5786 5794 5790 5790 5790 5791 5791 5789 5788 5786 5783 5780 5776 5773 5769 5767 5762 5759 5756 5752 5748 5745 5741 5736 5732 5729 5727 5723 5720 5716 5713 5711 5707 5705
5756 5760 5744 5781 5815 5814 5807 5805 5810 5799 5796 5792 5789 5788 5791 5790 5788 5784 5782 5780 5778 5776 5773 5771 5768 5764 5760 5755 5751 5747 5742 5739 5735 5731 5726 5722 5718 5714 5711 5708 5705 5702 5698 5695
5747 5744 5754 5782 5799 5803 5794 5790 5804 5798 5794 5792 5789 5782 5778 5784 5785 5779 5777 5775 5773 5772 5770 5766 5762 5759 5755 5749 5745 5740 5736 5732 5729 5724 5720 5715 5710 5706 5703 5699 5696 5693 5689 5685
5740 5732 5733 5762 5789 5802 5792 5772 5792 5793 5787 5785 5782 5764 5760 5774 5776 5774 5771 5768 5766 5765 5762 5758 5755 5752 5747 5740 5736 5732 5729 5726 5723 5718 5713 5708 5703 5699 5695 5691 5686 5682 5678 5674
5731 5732 5744 5764 5782 5784 5755 5755 5780 5783 5779 5777 5771 5767 5764 5767 5766 5764 5762 5760 5757 5755 5751 5748 5747 5743 5736 5731 5726 5723 5721 5717 5713 5709 5705 5700 5695 5691 5686 5681 5676 5671 5666 5662
5728 5724 5729 5761 5765 5752 5748 5768 5773 5772 5770 5765 5761 5759 5757 5755 5754 5752 5750 5748 5746 5742 5739 5738 5737 5732 5726 5720 5718 5715 5711 5707 5703 5699 5695 5690 5686 5681 5677 5672 5667 5661 5656 5650
5729 5725 5738 5752 5751 5753 5757 5755 5758 5758 5758 5755 5749 5745 5744 5742 5742 5741 5740 5738 5736 5732 5727 5725 5724 5721 5715 5711 5709 5705 5700 5695 5691 5687 5683 5679 5676 5671 5667 5663 5658 5653 5648 5642
5719 5723 5732 5738 5743 5746 5748 5747 5748 5748 5746 5744 5738 5736 5734 5731 5730 5729 5728 5726 5724 5721 5716 5711 5710 5708 5705 5702 5698 5694 5688 5683 5678 5674 5669 5665 5662 5659 5655 5652 5648 5644 5638 5633
5706 5712 5719 5723 5728 5731 5733 5738 5739 5738 5737 5733 5730 5726 5723 5720 5718 5717 5715 5715 5713 5709 5704 5699 5697 5695 5693 5690 5687 5682 5677 5671 5666 5660 5655 5649 5644 5639 5638 5634 5635 5633 5628 5623
5690 5702 5706 5706 5715 5718 5719 5722 5724 5723 5720 5721 5719 5715 5713 5710 5708 5706 5704 5702 5699 5696 5692 5688 5686 5683 5680 5678 5675 5671 5665 5659 5654 5648 5643 5637 5631 5624 5618 5618 5617 5616 5613 5609
5693 5698 5698 5701 5705 5707 5708 5709 5711 5711 5709 5708 5707 5705 5702 5699 5695 5694 5692 5689 5685 5682 5679 5676 5673 5669 5667 5665 5662 5659 5654 5648 5643 5638 5633 5627 5622 5617 5610 5603 5601 5599 5597 5594
5685 5687 5684 5688 5690 5694 5695 5696 5697 5697 5697 5697 5695 5693 5690 5687 5682 5679 5677 5675 5672 5669 5665 5663 5659 5656 5653 5652 5649 5646 5642 5637 5634 5629 5624 5619 5614 5609 5604 5600 5594 5586 5582 5579
5675 5678 5677 5679 5680 5680 5682 5683 5681 5680 5681 5681 5681 5679 5677 5672 5668 5665 5664 5662 5659 5656 5652 5649 5646 5643 5641 5639 5637 5634 5631 5627 5624 5619 5615 5610 5605 5601 5596 5591 5585 5579 5573 5568
5667 5670 5670 5669 5669 5670 5672 5671 5669 5668 5668 5666 5665 5664 5662 5659 5656 5653 5651 5649 5647 5643 5640 5637 5634 5632 5630 5628 5626 5623 5620 5617 5614 5610 5606 5602 5597 5593 5588 5583 5578 5571 5566 5561
5656 5657 5658 5658 5659 5660 5660 5660 5659 5657 5656 5654 5652 5651 5649 5646 5643 5641 5638 5637 5635 5631 5629 5626 5624 5622 5620 5618 5616 5613 5610 5606 5604 5602 5598 5594 5590 5585 5581 5576 5571 5566 5560 5555
5654 5655 5654 5653 5651 5650 5650 5650 5648 5646 5645 5643 5642 5640 5637 5635 5632 5630 5628 5626 5624 5621 5619 5617 5615 5613 5611 5609 5607 5604 5601 5599 5597 5594 5590 5587 5583 5579 5575 5570 5565 5560 5554 5549
5647 5646 5646 5644 5643 5642 5640 5638 5637 5635 5634 5633 5631 5628 5627 5625 5623 5620 5619 5617 5614 5611 5608 5607 5605 5604 5602 5600 5599 5597 5596 5594 5590 5586 5583 5578 5576 5572 5568 5563 5558 5553 5548 5543
5636 5636 5636 5634 5633 5631 5629 5628 5627 5625 5623 5622 5620 5618 5615 5614 5613 5611 5610 5607 5605 5603 5601 5599 5597 5596 5594 5593 5593 5593 5591 5589 5584 5579 5575 5571 5568 5564 5560 5556 5552 5547 5542 5536
5625 5625 5625 5623 5622 5621 5621 5619 5617 5615 5613 5611 5609 5608 5606 5604 5604 5603 5601 5598 5594 5594 5593 5591 5590 5589 5589 5587 5585 5587 5585 5581 5577 5572 5568 5565 5561 5558 5554 5550 5545 5539 5534 5529
5616 5616 5615 5614 5613 5611 5610 5609 5608 5606 5604 5602 5601 5601 5599 5597 5596 5595 5593 5591 5588 5587 5587 5586 5585 5584 5583 5582 5582 5581 5578 5573 5569 5565 5562 5559 5555 5551 5547 5542 5537 5532 5527 5522
5607 5607 5607 5606 5605 5603 5602 5600 5598 5597 5596 5595 5595 5594 5593 5591 5591 5589 5586 5584 5584 5581 5582 5581 5579 5577 5576 5576 5576 5574 5571 5566 5563 5559 5556 5552 5548 5544 5539 5534 5530 5525 5520 5515
5599 5599 5598 5598 5598 5596 5593 5592 5591 5590 5590 5590 5590 5589 5589 5587 5586 5585 5582 5579 5578 5576 5576 5572 5571 5570 5568 5569 5568 5566 5563 5559 5556 5553 5549 5546 5542 5537 5532 5527 5523 5518 5513 5509
5592 5592 5591 5591 5589 5588 5587 5587 5586 5586 5586 5585 5585 5585 5586 5585 5583 5581 5578 5575 5571 5571 5568 5565 5564 5562 5563 5563 5561 5559 5555 5552 5549 5546 5542 5538 5534 5529 5525 5520 5516 5511 5507 5503
5586 5586 5586 5586 5585 5585 5585 5585 5584 5584 5584 5583 5582 5583 5582 5581 5579 5576 5574 5571 5569 5566 5564 5561 5559 5557 5558 5557 5554 5551 5548 5544 5540 5537 5534 5531 5527 5523 5518 5514 5510 5506 5502 5498
5581 5581 5581 5582 5582 5584 5585 5584 5583 5583 5582 5581 5580 5580 5579 5577 5575 5573 5570 5568 5565 5563 5561 5558 5557 5555 5553 5551 5549 5545 5542 5539 5536 5532 5529 5524 5520 5516 5512 5507 5504 5500 5496 5493